Time,TemperatureF,DewpointF,PressureIn,WindDirection,WindDirectionDegrees,WindSpeedMPH,WindSpeedGustMPH,Humidity,HourlyPrecipIn,Conditions,Clouds,dailyrainin,SoftwareType,DateUTC
2013-12-19 00:00:00,36.1,12.4,29.53,NW,312,3.0,6.0,37,0.00,,,0.00,meteohub,2013-12-19 07:00:00,
2013-12-19 00:02:00,35.8,12.7,29.53,WNW,294,3.0,6.0,38,0.00,,,0.00,meteohub,2013-12-19 07:02:00,
2013-12-19 00:04:00,35.4,12.4,29.53,West,267,3.0,6.0,38,0.00,,,0.00,meteohub,2013-12-19 07:04:00,
2013-12-19 00:06:00,35.4,12.9,29.53,WSW,239,5.0,5.0,39,0.00,,,0.00,meteohub,2013-12-19 07:06:00,
2013-12-19 00:07:00,35.4,12.9,29.53,WSW,246,5.0,5.0,39,0.00,,,0.00,meteohub,2013-12-19 07:07:00,
2013-12-19 00:10:00,35.8,12.7,29.53,WSW,244,7.0,7.0,38,0.00,,,0.00,meteohub,2013-12-19 07:10:00,
2013-12-19 00:12:00,36.0,12.7,29.52,West,259,12.0,12.0,38,0.00,,,0.00,meteohub,2013-12-19 07:12:00,
2013-12-19 00:14:00,36.0,12.2,29.52,WSW,244,11.0,11.0,37,0.00,,,0.00,meteohub,2013-12-19 07:14:00,
2013-12-19 00:16:00,36.0,12.2,29.52,West,263,7.0,13.0,37,0.00,,,0.00,meteohub,2013-12-19 07:16:00,
2013-12-19 00:17:00,36.0,12.2,29.52,WSW,246,11.0,13.0,37,0.00,,,0.00,meteohub,2013-12-19 07:17:00,
2013-12-19 00:18:00,36.0,12.7,29.52,WSW,246,6.0,13.0,38,0.00,,,0.00,meteohub,2013-12-19 07:18:00,
2013-12-19 00:22:00,35.8,12.7,29.52,SW,233,10.0,13.0,38,0.00,,,0.00,meteohub,2013-12-19 07:22:00,
2013-12-19 00:27:00,35.6,12.6,29.51,WSW,258,13.0,15.0,38,0.00,,,0.00,meteohub,2013-12-19 07:27:00,
2013-12-19 00:28:00,35.2,12.2,29.51,West,269,10.0,15.0,38,0.00,,,0.00,meteohub,2013-12-19 07:28:00,
2013-12-19 00:30:00,35.2,12.7,29.51,West,263,9.0,15.0,39,0.00,,,0.00,meteohub,2013-12-19 07:30:00,
2013-12-19 00:32:00,35.2,12.7,29.51,West,279,6.0,15.0,39,0.00,,,0.00,meteohub,2013-12-19 07:32:00,
2013-12-19 00:36:00,35.4,12.9,29.51,WSW,248,10.0,15.0,39,0.00,,,0.00,meteohub,2013-12-19 07:36:00,
2013-12-19 00:38:00,35.4,12.9,29.51,West,264,4.0,15.0,39,0.00,,,0.00,meteohub,2013-12-19 07:38:00,
2013-12-19 00:40:00,35.8,13.3,29.51,WSW,250,12.0,13.0,39,0.00,,,0.00,meteohub,2013-12-19 07:40:00,
2013-12-19 00:43:00,35.8,12.7,29.51,WSW,254,8.0,13.0,38,0.00,,,0.00,meteohub,2013-12-19 07:43:00,
2013-12-19 00:45:00,35.8,12.7,29.50,West,261,5.0,13.0,38,0.00,,,0.00,meteohub,2013-12-19 07:45:00,
2013-12-19 00:47:00,35.8,13.3,29.50,West,270,6.0,19.0,39,0.00,,,0.00,meteohub,2013-12-19 07:47:00,
2013-12-19 00:49:00,35.8,13.3,29.50,WNW,292,6.0,19.0,39,0.00,,,0.00,meteohub,2013-12-19 07:49:00,
2013-12-19 00:52:00,36.0,13.5,29.50,WSW,238,12.0,19.0,39,0.00,,,0.00,meteohub,2013-12-19 07:52:00,
2013-12-19 00:53:00,35.8,13.3,29.50,West,267,9.0,19.0,39,0.00,,,0.00,meteohub,2013-12-19 07:53:00,
2013-12-19 00:57:00,35.8,13.3,29.50,West,270,9.0,17.0,39,0.00,,,0.00,meteohub,2013-12-19 07:57:00,
2013-12-19 00:59:00,35.8,13.8,29.49,WSW,257,11.0,17.0,40,0.00,,,0.00,meteohub,2013-12-19 07:59:00,
2013-12-19 01:02:00,35.8,13.3,29.49,WSW,254,9.0,17.0,39,0.00,,,0.00,meteohub,2013-12-19 08:02:00,
2013-12-19 01:05:00,35.6,13.6,29.49,WSW,237,12.0,17.0,40,0.00,,,0.00,meteohub,2013-12-19 08:05:00,
2013-12-19 01:07:00,35.4,13.5,29.49,WSW,248,13.0,15.0,40,0.00,,,0.00,meteohub,2013-12-19 08:07:00,
2013-12-19 01:11:00,35.6,13.6,29.49,SW,230,9.0,20.0,40,0.00,,,0.00,meteohub,2013-12-19 08:11:00,
2013-12-19 01:12:00,35.8,14.4,29.49,West,261,13.0,20.0,41,0.00,,,0.00,meteohub,2013-12-19 08:12:00,
2013-12-19 01:13:00,36.0,14.0,29.48,West,261,18.0,20.0,40,0.00,,,0.00,meteohub,2013-12-19 08:13:00,
2013-12-19 01:17:00,36.3,14.4,29.48,WSW,258,16.0,20.0,40,0.00,,,0.00,meteohub,2013-12-19 08:17:00,
2013-12-19 01:21:00,36.1,14.2,29.48,WSW,254,16.0,20.0,40,0.00,,,0.00,meteohub,2013-12-19 08:21:00,
2013-12-19 01:23:00,36.0,14.0,29.48,West,263,16.0,20.0,40,0.00,,,0.00,meteohub,2013-12-19 08:23:00,
2013-12-19 01:25:00,36.0,14.5,29.48,West,276,9.0,20.0,41,0.00,,,0.00,meteohub,2013-12-19 08:25:00,
2013-12-19 01:27:00,36.0,14.5,29.48,West,267,7.0,20.0,41,0.00,,,0.00,meteohub,2013-12-19 08:27:00,
2013-12-19 01:29:00,36.1,14.2,29.48,WSW,252,18.0,20.0,40,0.00,,,0.00,meteohub,2013-12-19 08:29:00,
2013-12-19 01:31:00,36.1,14.7,29.47,SW,236,14.0,20.0,41,0.00,,,0.00,meteohub,2013-12-19 08:31:00,
2013-12-19 01:33:00,36.1,14.7,29.47,West,277,19.0,20.0,41,0.00,,,0.00,meteohub,2013-12-19 08:33:00,
2013-12-19 01:37:00,36.7,15.3,29.47,WSW,250,15.0,26.0,41,0.00,,,0.00,meteohub,2013-12-19 08:37:00,
2013-12-19 01:41:00,37.0,14.9,29.47,WSW,243,21.0,26.0,40,0.00,,,0.00,meteohub,2013-12-19 08:41:00,
2013-12-19 01:42:00,37.0,14.9,29.47,WSW,248,13.0,26.0,40,0.00,,,0.00,meteohub,2013-12-19 08:42:00,
2013-12-19 01:47:00,36.9,15.4,29.47,WNW,285,18.0,26.0,41,0.00,,,0.00,meteohub,2013-12-19 08:47:00,
2013-12-19 01:52:00,36.7,15.3,29.47,WNW,284,9.0,24.0,41,0.00,,,0.00,meteohub,2013-12-19 08:52:00,
2013-12-19 01:53:00,36.7,15.3,29.47,WSW,250,13.0,24.0,41,0.00,,,0.00,meteohub,2013-12-19 08:53:00,
2013-12-19 01:55:00,36.7,15.3,29.47,West,266,13.0,24.0,41,0.00,,,0.00,meteohub,2013-12-19 08:55:00,
2013-12-19 01:57:00,36.7,15.3,29.47,WSW,252,18.0,24.0,41,0.00,,,0.00,meteohub,2013-12-19 08:57:00,
2013-12-19 02:01:00,37.0,15.4,29.47,WNW,286,13.0,20.0,41,0.00,,,0.00,meteohub,2013-12-19 09:01:00,
2013-12-19 02:02:00,37.0,15.4,29.47,West,269,16.0,20.0,41,0.00,,,0.00,meteohub,2013-12-19 09:02:00,
2013-12-19 02:03:00,37.2,15.6,29.47,West,269,17.0,20.0,41,0.00,,,0.00,meteohub,2013-12-19 09:03:00,
2013-12-19 02:05:00,37.2,15.6,29.47,WSW,248,11.0,20.0,41,0.00,,,0.00,meteohub,2013-12-19 09:05:00,
2013-12-19 02:07:00,37.2,15.6,29.48,West,260,13.0,27.0,41,0.00,,,0.00,meteohub,2013-12-19 09:07:00,
2013-12-19 02:09:00,37.6,16.0,29.47,WSW,240,16.0,27.0,41,0.00,,,0.00,meteohub,2013-12-19 09:09:00,
2013-12-19 02:11:00,37.8,16.2,29.47,West,262,18.0,27.0,41,0.00,,,0.00,meteohub,2013-12-19 09:11:00,
2013-12-19 02:13:00,37.9,15.8,29.48,WNW,293,11.0,27.0,40,0.00,,,0.00,meteohub,2013-12-19 09:13:00,
2013-12-19 02:17:00,37.8,15.6,29.47,West,275,12.0,27.0,40,0.00,,,0.00,meteohub,2013-12-19 09:17:00,
2013-12-19 02:19:00,37.6,15.4,29.47,WSW,252,15.0,27.0,40,0.00,,,0.00,meteohub,2013-12-19 09:19:00,
2013-12-19 02:21:00,37.6,16.0,29.47,West,260,14.0,22.0,41,0.00,,,0.00,meteohub,2013-12-19 09:21:00,
2013-12-19 02:22:00,37.6,16.0,29.47,West,270,12.0,22.0,41,0.00,,,0.00,meteohub,2013-12-19 09:22:00,
2013-12-19 02:23:00,37.8,16.2,29.47,West,259,12.0,22.0,41,0.00,,,0.00,meteohub,2013-12-19 09:23:00,
2013-12-19 02:25:00,37.8,16.2,29.47,West,277,9.0,21.0,41,0.00,,,0.00,meteohub,2013-12-19 09:25:00,
2013-12-19 02:27:00,37.9,16.3,29.48,West,279,8.0,21.0,41,0.00,,,0.00,meteohub,2013-12-19 09:27:00,
2013-12-19 02:29:00,37.8,16.2,29.47,West,279,7.0,21.0,41,0.00,,,0.00,meteohub,2013-12-19 09:29:00,
2013-12-19 02:31:00,37.8,16.2,29.47,West,277,6.0,17.0,41,0.00,,,0.00,meteohub,2013-12-19 09:31:00,
2013-12-19 02:32:00,37.6,16.0,29.47,West,269,9.0,17.0,41,0.00,,,0.00,meteohub,2013-12-19 09:32:00,
2013-12-19 02:35:00,37.6,16.0,29.47,West,271,5.0,16.0,41,0.00,,,0.00,meteohub,2013-12-19 09:35:00,
2013-12-19 02:37:00,37.6,16.0,29.47,West,278,10.0,16.0,41,0.00,,,0.00,meteohub,2013-12-19 09:37:00,
2013-12-19 02:41:00,37.6,16.0,29.47,West,273,7.0,15.0,41,0.00,,,0.00,meteohub,2013-12-19 09:41:00,
2013-12-19 02:42:00,37.6,16.0,29.47,West,276,6.0,15.0,41,0.00,,,0.00,meteohub,2013-12-19 09:42:00,
2013-12-19 02:43:00,37.6,16.0,29.47,West,278,6.0,15.0,41,0.00,,,0.00,meteohub,2013-12-19 09:43:00,
2013-12-19 02:47:00,37.4,15.8,29.47,West,280,6.0,15.0,41,0.00,,,0.00,meteohub,2013-12-19 09:47:00,
2013-12-19 02:50:00,37.6,16.0,29.47,WNW,284,10.0,15.0,41,0.00,,,0.00,meteohub,2013-12-19 09:50:00,
2013-12-19 02:52:00,37.6,16.0,29.47,West,273,10.0,15.0,41,0.00,,,0.00,meteohub,2013-12-19 09:52:00,
2013-12-19 02:56:00,37.9,16.3,29.47,WNW,284,13.0,16.0,41,0.00,,,0.00,meteohub,2013-12-19 09:56:00,
2013-12-19 02:57:00,37.9,16.3,29.47,West,265,10.0,16.0,41,0.00,,,0.00,meteohub,2013-12-19 09:57:00,
2013-12-19 03:02:00,38.1,16.5,29.47,West,275,11.0,16.0,41,0.00,,,0.00,meteohub,2013-12-19 10:02:00,
2013-12-19 03:07:00,38.5,16.3,29.47,WSW,244,11.0,16.0,40,0.00,,,0.00,meteohub,2013-12-19 10:07:00,
2013-12-19 03:08:00,38.5,16.3,29.47,WSW,252,12.0,16.0,40,0.00,,,0.00,meteohub,2013-12-19 10:08:00,
2013-12-19 03:12:00,38.8,16.5,29.46,WSW,246,17.0,17.0,40,0.00,,,0.00,meteohub,2013-12-19 10:12:00,
2013-12-19 03:14:00,39.0,16.7,29.46,West,272,10.0,17.0,40,0.00,,,0.00,meteohub,2013-12-19 10:14:00,
2013-12-19 03:18:00,39.0,16.2,29.46,West,267,11.0,19.0,39,0.00,,,0.00,meteohub,2013-12-19 10:18:00,
2013-12-19 03:20:00,39.0,16.2,29.46,West,278,9.0,19.0,39,0.00,,,0.00,meteohub,2013-12-19 10:20:00,
2013-12-19 03:22:00,39.2,16.3,29.46,WSW,255,11.0,19.0,39,0.00,,,0.00,meteohub,2013-12-19 10:22:00,
2013-12-19 03:26:00,39.0,16.2,-100.00,West,277,11.0,17.0,39,0.00,,,0.00,meteohub,2013-12-19 10:26:00,
2013-12-19 03:27:00,39.0,16.2,29.46,West,265,7.0,17.0,39,0.00,,,0.00,meteohub,2013-12-19 10:27:00,
2013-12-19 03:28:00,39.0,16.2,29.46,West,272,13.0,17.0,39,0.00,,,0.00,meteohub,2013-12-19 10:28:00,
2013-12-19 03:30:00,39.0,16.2,29.46,WSW,258,13.0,17.0,39,0.00,,,0.00,meteohub,2013-12-19 10:30:00,
2013-12-19 03:32:00,39.0,16.2,29.46,West,276,11.0,17.0,39,0.00,,,0.00,meteohub,2013-12-19 10:32:00,
2013-12-19 03:37:00,39.6,16.7,29.46,West,268,18.0,20.0,39,0.00,,,0.00,meteohub,2013-12-19 10:37:00,
2013-12-19 03:38:00,39.6,16.7,29.46,West,275,15.0,20.0,39,0.00,,,0.00,meteohub,2013-12-19 10:38:00,
2013-12-19 03:42:00,39.7,16.2,29.46,West,273,13.0,22.0,38,0.00,,,0.00,meteohub,2013-12-19 10:42:00,
2013-12-19 03:44:00,39.6,16.7,29.46,West,265,10.0,22.0,39,0.00,,,0.00,meteohub,2013-12-19 10:44:00,
2013-12-19 03:46:00,39.4,16.5,29.46,WSW,251,17.0,22.0,39,0.00,,,0.00,meteohub,2013-12-19 10:46:00,
2013-12-19 03:48:00,39.6,16.7,29.46,WNW,290,17.0,22.0,39,0.00,,,0.00,meteohub,2013-12-19 10:48:00,
2013-12-19 03:54:00,39.6,16.7,29.46,NW,306,12.0,26.0,39,0.00,,,0.00,meteohub,2013-12-19 10:54:00,
2013-12-19 03:58:00,39.0,16.2,29.46,WNW,284,10.0,26.0,39,0.00,,,0.00,meteohub,2013-12-19 10:58:00,
2013-12-19 04:00:00,39.0,16.2,29.46,WNW,284,13.0,26.0,39,0.00,,,0.00,meteohub,2013-12-19 11:00:00,
2013-12-19 04:02:00,39.0,16.7,29.46,West,281,6.0,26.0,40,0.00,,,0.00,meteohub,2013-12-19 11:02:00,
2013-12-19 04:04:00,39.2,16.9,29.46,NW,319,9.0,26.0,40,0.00,,,0.00,meteohub,2013-12-19 11:04:00,
2013-12-19 04:06:00,39.2,16.3,29.46,West,273,11.0,24.0,39,0.00,,,0.00,meteohub,2013-12-19 11:06:00,
2013-12-19 04:10:00,38.7,16.3,29.46,West,261,10.0,24.0,40,0.00,,,0.00,meteohub,2013-12-19 11:10:00,
2013-12-19 04:12:00,38.7,16.3,29.46,WNW,296,9.0,24.0,40,0.00,,,0.00,meteohub,2013-12-19 11:12:00,
2013-12-19 04:16:00,38.1,16.5,29.46,West,267,12.0,19.0,41,0.00,,,0.00,meteohub,2013-12-19 11:16:00,
2013-12-19 04:17:00,38.1,16.5,29.46,WNW,290,7.0,19.0,41,0.00,,,0.00,meteohub,2013-12-19 11:17:00,
2013-12-19 04:20:00,37.6,16.0,29.47,West,276,7.0,17.0,41,0.00,,,0.00,meteohub,2013-12-19 11:20:00,
2013-12-19 04:22:00,37.2,16.2,29.47,WNW,298,8.0,17.0,42,0.00,,,0.00,meteohub,2013-12-19 11:22:00,
2013-12-19 04:26:00,37.0,16.2,29.47,WNW,296,9.0,20.0,42,0.00,,,0.00,meteohub,2013-12-19 11:26:00,
2013-12-19 04:28:00,37.0,16.2,29.47,West,271,9.0,20.0,42,0.00,,,0.00,meteohub,2013-12-19 11:28:00,
2013-12-19 04:32:00,36.9,16.0,29.47,West,271,11.0,20.0,42,0.00,,,0.00,meteohub,2013-12-19 11:32:00,
2013-12-19 04:34:00,36.9,16.5,29.47,West,266,11.0,20.0,43,0.00,,,0.00,meteohub,2013-12-19 11:34:00,
2013-12-19 04:37:00,36.9,16.5,29.47,WNW,297,10.0,20.0,43,0.00,,,0.00,meteohub,2013-12-19 11:37:00,
2013-12-19 04:40:00,36.7,16.3,29.47,West,279,12.0,20.0,43,0.00,,,0.00,meteohub,2013-12-19 11:40:00,
2013-12-19 04:42:00,36.5,16.2,29.47,WNW,290,7.0,20.0,43,0.00,,,0.00,meteohub,2013-12-19 11:42:00,
2013-12-19 04:44:00,36.3,16.5,29.47,West,278,9.0,20.0,44,0.00,,,0.00,meteohub,2013-12-19 11:44:00,
2013-12-19 04:48:00,36.7,16.9,29.47,West,269,8.0,20.0,44,0.00,,,0.00,meteohub,2013-12-19 11:48:00,
2013-12-19 04:52:00,36.7,16.9,29.47,NW,311,2.0,17.0,44,0.00,,,0.00,meteohub,2013-12-19 11:52:00,
2013-12-19 04:54:00,36.7,16.9,29.46,WNW,283,10.0,17.0,44,0.00,,,0.00,meteohub,2013-12-19 11:54:00,
2013-12-19 04:57:00,36.3,16.5,29.46,West,259,5.0,15.0,44,0.00,,,0.00,meteohub,2013-12-19 11:57:00,
2013-12-19 05:02:00,36.0,17.2,29.45,SE,137,3.0,15.0,46,0.00,,,0.00,meteohub,2013-12-19 12:02:00,
2013-12-19 05:05:00,36.0,17.2,29.45,West,274,12.0,15.0,46,0.00,,,0.00,meteohub,2013-12-19 12:05:00,
2013-12-19 05:07:00,35.8,17.1,29.44,WSW,237,9.0,18.0,46,0.00,,,0.00,meteohub,2013-12-19 12:07:00,
2013-12-19 05:09:00,35.8,17.6,29.44,West,268,16.0,18.0,47,0.00,,,0.00,meteohub,2013-12-19 12:09:00,
2013-12-19 05:13:00,35.8,17.6,29.44,West,265,9.0,20.0,47,0.00,,,0.00,meteohub,2013-12-19 12:13:00,
2013-12-19 05:15:00,35.8,18.0,29.44,West,272,13.0,20.0,48,0.00,,,0.00,meteohub,2013-12-19 12:15:00,
2013-12-19 05:17:00,36.0,17.6,29.44,West,265,9.0,20.0,47,0.00,,,0.00,meteohub,2013-12-19 12:17:00,
2013-12-19 05:21:00,36.1,18.3,29.43,West,262,7.0,20.0,48,0.00,,,0.00,meteohub,2013-12-19 12:21:00,
2013-12-19 05:23:00,36.1,18.3,29.43,West,281,4.0,20.0,48,0.00,,,0.00,meteohub,2013-12-19 12:23:00,
2013-12-19 05:27:00,36.3,19.0,29.42,SSW,192,4.0,20.0,49,0.00,,,0.00,meteohub,2013-12-19 12:27:00,
2013-12-19 05:31:00,36.7,18.9,-100.00,WNW,292,9.0,20.0,48,0.00,,,0.00,meteohub,2013-12-19 12:31:00,
2013-12-19 05:32:00,36.7,18.9,29.42,East,80,4.0,22.0,48,0.00,,,0.00,meteohub,2013-12-19 12:32:00,
2013-12-19 05:33:00,36.7,18.9,29.42,WSW,257,12.0,22.0,48,0.00,,,0.00,meteohub,2013-12-19 12:33:00,
2013-12-19 05:35:00,36.7,18.9,29.42,West,274,7.0,22.0,48,0.00,,,0.00,meteohub,2013-12-19 12:35:00,
2013-12-19 05:37:00,36.7,18.9,29.43,SW,234,11.0,22.0,48,0.00,,,0.00,meteohub,2013-12-19 12:37:00,
2013-12-19 05:39:00,36.9,19.0,29.43,West,268,12.0,22.0,48,0.00,,,0.00,meteohub,2013-12-19 12:39:00,
2013-12-19 05:41:00,36.9,19.0,29.43,WSW,242,11.0,22.0,48,0.00,,,0.00,meteohub,2013-12-19 12:41:00,
2013-12-19 05:42:00,37.0,19.2,29.43,West,281,10.0,22.0,48,0.00,,,0.00,meteohub,2013-12-19 12:42:00,
2013-12-19 05:47:00,37.2,18.9,29.42,WNW,284,6.0,16.0,47,0.00,,,0.00,meteohub,2013-12-19 12:47:00,
2013-12-19 05:49:00,37.2,18.9,29.42,WSW,257,9.0,16.0,47,0.00,,,0.00,meteohub,2013-12-19 12:49:00,
2013-12-19 05:52:00,37.2,18.9,29.42,WSW,258,8.0,16.0,47,0.00,,,0.00,meteohub,2013-12-19 12:52:00,
2013-12-19 05:53:00,37.4,19.0,29.42,West,271,6.0,16.0,47,0.00,,,0.00,meteohub,2013-12-19 12:53:00,
2013-12-19 05:55:00,37.6,18.7,29.42,West,277,6.0,16.0,46,0.00,,,0.00,meteohub,2013-12-19 12:55:00,
2013-12-19 05:57:00,37.6,18.7,29.42,West,276,4.0,15.0,46,0.00,,,0.00,meteohub,2013-12-19 12:57:00,
2013-12-19 06:01:00,37.6,18.7,29.42,WNW,294,5.0,9.0,46,0.00,,,0.00,meteohub,2013-12-19 13:01:00,
2013-12-19 06:02:00,37.8,18.9,29.42,WNW,296,4.0,9.0,46,0.00,,,0.00,meteohub,2013-12-19 13:02:00,
2013-12-19 06:07:00,37.2,18.3,29.41,West,268,3.0,9.0,46,0.00,,,0.00,meteohub,2013-12-19 13:07:00,
2013-12-19 06:09:00,36.3,18.0,29.41,WSW,242,3.0,9.0,47,0.00,,,0.00,meteohub,2013-12-19 13:09:00,
2013-12-19 06:12:00,35.4,18.1,29.41,West,270,5.0,9.0,49,0.00,,,0.00,meteohub,2013-12-19 13:12:00,
2013-12-19 06:13:00,35.1,18.3,29.41,West,260,9.0,9.0,50,0.00,,,0.00,meteohub,2013-12-19 13:13:00,
2013-12-19 06:17:00,35.1,18.3,29.42,NNW,340,3.0,11.0,50,0.00,,,0.00,meteohub,2013-12-19 13:17:00,
2013-12-19 06:19:00,35.2,18.5,29.42,West,271,2.0,11.0,50,0.00,,,0.00,meteohub,2013-12-19 13:19:00,
2013-12-19 06:21:00,35.2,18.5,29.42,SE,138,1.0,11.0,50,0.00,,,0.00,meteohub,2013-12-19 13:21:00,
2013-12-19 06:22:00,35.2,18.5,29.42,West,261,1.0,11.0,50,0.00,,,0.00,meteohub,2013-12-19 13:22:00,
2013-12-19 06:25:00,34.5,18.3,29.42,WNW,284,1.0,11.0,51,0.00,,,0.00,meteohub,2013-12-19 13:25:00,
2013-12-19 06:27:00,34.3,18.1,29.42,WNW,294,0.0,11.0,51,0.00,,,0.00,meteohub,2013-12-19 13:27:00,
2013-12-19 06:29:00,34.2,18.0,29.41,North,9,0.0,11.0,51,0.00,,,0.00,meteohub,2013-12-19 13:29:00,
2013-12-19 06:31:00,34.2,18.3,29.41,West,261,1.0,11.0,52,0.00,,,0.00,meteohub,2013-12-19 13:31:00,
2013-12-19 06:33:00,34.2,18.3,29.41,West,273,4.0,11.0,52,0.00,,,0.00,meteohub,2013-12-19 13:33:00,
2013-12-19 06:35:00,34.0,18.1,29.42,WSW,255,0.0,6.0,52,0.00,,,0.00,meteohub,2013-12-19 13:35:00,
2013-12-19 06:37:00,33.6,17.8,29.41,West,263,0.0,6.0,52,0.00,,,0.00,meteohub,2013-12-19 13:37:00,
2013-12-19 06:39:00,33.4,18.1,29.41,NW,306,0.0,6.0,53,0.00,,,0.00,meteohub,2013-12-19 13:39:00,
2013-12-19 06:41:00,33.4,18.1,29.41,West,267,0.0,5.0,53,0.00,,,0.00,meteohub,2013-12-19 13:41:00,
2013-12-19 06:42:00,33.4,18.1,29.41,West,268,0.0,5.0,53,0.00,,,0.00,meteohub,2013-12-19 13:42:00,
2013-12-19 06:45:00,33.3,18.0,29.41,West,274,4.0,5.0,53,0.00,,,0.00,meteohub,2013-12-19 13:45:00,
2013-12-19 06:47:00,33.1,17.8,29.41,West,266,5.0,5.0,53,0.00,,,0.00,meteohub,2013-12-19 13:47:00,
2013-12-19 06:52:00,33.4,18.1,29.41,West,262,4.0,11.0,53,0.00,,,0.00,meteohub,2013-12-19 13:52:00,
2013-12-19 06:53:00,33.6,18.3,29.41,WSW,252,7.0,11.0,53,0.00,,,0.00,meteohub,2013-12-19 13:53:00,
2013-12-19 06:57:00,33.8,18.5,29.41,West,274,5.0,12.0,53,0.00,,,0.00,meteohub,2013-12-19 13:57:00,
2013-12-19 06:59:00,34.3,18.5,29.41,West,281,2.0,12.0,52,0.00,,,0.00,meteohub,2013-12-19 13:59:00,
2013-12-19 07:02:00,34.2,18.3,29.40,SW,232,4.0,12.0,52,0.00,,,0.00,meteohub,2013-12-19 14:02:00,
2013-12-19 07:04:00,33.6,17.8,29.40,WSW,256,2.0,12.0,52,0.00,,,0.00,meteohub,2013-12-19 14:04:00,
2013-12-19 07:06:00,33.4,18.1,29.40,WSW,252,4.0,7.0,53,0.00,,,0.00,meteohub,2013-12-19 14:06:00,
2013-12-19 07:07:00,33.3,18.0,29.40,SW,229,2.0,7.0,53,0.00,,,0.00,meteohub,2013-12-19 14:07:00,
2013-12-19 07:12:00,34.5,17.2,29.40,WSW,257,7.0,7.0,49,0.00,,,0.00,meteohub,2013-12-19 14:12:00,
2013-12-19 07:14:00,35.4,17.6,29.40,West,279,12.0,12.0,48,0.00,,,0.00,meteohub,2013-12-19 14:14:00,
2013-12-19 07:17:00,36.5,17.2,29.40,WNW,297,7.0,13.0,45,0.00,,,0.00,meteohub,2013-12-19 14:17:00,
2013-12-19 07:18:00,36.7,16.9,29.40,WNW,291,7.0,13.0,44,0.00,,,0.00,meteohub,2013-12-19 14:18:00,
2013-12-19 07:20:00,37.0,17.1,29.40,West,279,7.0,13.0,44,0.00,,,0.00,meteohub,2013-12-19 14:20:00,
2013-12-19 07:24:00,37.6,16.5,29.41,WNW,293,9.0,13.0,42,0.00,,,0.00,meteohub,2013-12-19 14:24:00,
2013-12-19 07:26:00,37.8,16.7,29.40,West,267,6.0,13.0,42,0.00,,,0.00,meteohub,2013-12-19 14:26:00,
2013-12-19 07:28:00,37.8,16.7,29.40,WNW,290,12.0,13.0,42,0.00,,,0.00,meteohub,2013-12-19 14:28:00,
2013-12-19 07:30:00,38.1,16.5,29.40,WNW,284,5.0,13.0,41,0.00,,,0.00,meteohub,2013-12-19 14:30:00,
2013-12-19 07:32:00,38.1,16.5,29.40,WNW,300,9.0,13.0,41,0.00,,,0.00,meteohub,2013-12-19 14:32:00,
2013-12-19 07:37:00,38.3,16.7,29.40,West,276,5.0,13.0,41,0.00,,,0.00,meteohub,2013-12-19 14:37:00,
2013-12-19 07:38:00,38.3,16.7,29.40,West,278,3.0,13.0,41,0.00,,,0.00,meteohub,2013-12-19 14:38:00,
2013-12-19 07:44:00,37.9,16.3,29.39,NW,304,4.0,13.0,41,0.00,,,0.00,meteohub,2013-12-19 14:44:00,
2013-12-19 07:46:00,38.1,16.0,29.39,NW,313,3.0,12.0,40,0.00,,,0.00,meteohub,2013-12-19 14:46:00,
2013-12-19 07:47:00,37.9,16.3,29.39,West,263,5.0,12.0,41,0.00,,,0.00,meteohub,2013-12-19 14:47:00,
2013-12-19 07:48:00,37.8,16.2,29.39,West,268,6.0,12.0,41,0.00,,,0.00,meteohub,2013-12-19 14:48:00,
2013-12-19 07:50:00,37.6,16.0,29.39,West,265,3.0,12.0,41,0.00,,,0.00,meteohub,2013-12-19 14:50:00,
2013-12-19 07:52:00,37.2,15.6,29.39,West,267,4.0,9.0,41,0.00,,,0.00,meteohub,2013-12-19 14:52:00,
2013-12-19 07:56:00,36.1,15.8,29.39,West,276,7.0,7.0,43,0.00,,,0.00,meteohub,2013-12-19 14:56:00,
2013-12-19 07:57:00,36.1,15.8,29.39,West,261,6.0,7.0,43,0.00,,,0.00,meteohub,2013-12-19 14:57:00,
2013-12-19 07:58:00,36.0,16.2,29.39,West,266,9.0,9.0,44,0.00,,,0.00,meteohub,2013-12-19 14:58:00,
2013-12-19 08:02:00,36.7,16.3,29.39,WSW,257,5.0,11.0,43,0.00,,,0.00,meteohub,2013-12-19 15:02:00,
2013-12-19 08:04:00,36.5,15.6,29.39,West,272,5.0,11.0,42,0.00,,,0.00,meteohub,2013-12-19 15:04:00,
2013-12-19 08:06:00,36.3,16.0,29.39,West,279,3.0,11.0,43,0.00,,,0.00,meteohub,2013-12-19 15:06:00,
2013-12-19 08:07:00,36.3,16.0,29.39,WNW,287,4.0,11.0,43,0.00,,,0.00,meteohub,2013-12-19 15:07:00,
2013-12-19 08:10:00,36.0,15.6,29.39,West,275,6.0,11.0,43,0.00,,,0.00,meteohub,2013-12-19 15:10:00,
2013-12-19 08:12:00,36.0,16.2,29.39,WNW,292,5.0,11.0,44,0.00,,,0.00,meteohub,2013-12-19 15:12:00,
2013-12-19 08:16:00,35.8,16.0,29.39,West,273,4.0,8.0,44,0.00,,,0.00,meteohub,2013-12-19 15:16:00,
2013-12-19 08:18:00,35.6,15.8,29.39,WNW,289,3.0,8.0,44,0.00,,,0.00,meteohub,2013-12-19 15:18:00,
2013-12-19 08:20:00,35.4,16.2,29.39,West,263,1.0,8.0,45,0.00,,,0.00,meteohub,2013-12-19 15:20:00,
2013-12-19 08:22:00,35.4,16.2,29.39,West,265,3.0,8.0,45,0.00,,,0.00,meteohub,2013-12-19 15:22:00,
2013-12-19 08:24:00,35.4,16.2,29.39,West,277,1.0,8.0,45,0.00,,,0.00,meteohub,2013-12-19 15:24:00,
2013-12-19 08:28:00,35.2,16.0,29.39,West,265,0.0,8.0,45,0.00,,,0.00,meteohub,2013-12-19 15:28:00,
2013-12-19 08:30:00,35.2,16.0,29.39,West,279,2.0,6.0,45,0.00,,,0.00,meteohub,2013-12-19 15:30:00,
2013-12-19 08:32:00,35.2,16.0,29.39,West,267,2.0,6.0,45,0.00,,,0.00,meteohub,2013-12-19 15:32:00,
2013-12-19 08:34:00,35.4,15.6,29.39,West,272,2.0,6.0,44,0.00,,,0.00,meteohub,2013-12-19 15:34:00,
2013-12-19 08:36:00,35.6,15.8,29.39,West,277,1.0,6.0,44,0.00,,,0.00,meteohub,2013-12-19 15:36:00,
2013-12-19 08:37:00,35.6,15.8,29.39,West,263,0.0,6.0,44,0.00,,,0.00,meteohub,2013-12-19 15:37:00,
2013-12-19 08:38:00,35.6,15.8,29.39,WNW,290,0.0,6.0,44,0.00,,,0.00,meteohub,2013-12-19 15:38:00,
2013-12-19 08:42:00,35.4,15.6,29.39,West,273,1.0,5.0,44,0.00,,,0.00,meteohub,2013-12-19 15:42:00,
2013-12-19 08:44:00,35.4,16.2,29.39,West,271,2.0,5.0,45,0.00,,,0.00,meteohub,2013-12-19 15:44:00,
2013-12-19 08:46:00,35.4,15.6,29.39,West,272,0.0,5.0,44,0.00,,,0.00,meteohub,2013-12-19 15:46:00,
2013-12-19 08:52:00,36.1,14.7,29.39,West,273,4.0,6.0,41,0.00,,,0.00,meteohub,2013-12-19 15:52:00,
2013-12-19 08:57:00,38.1,15.3,29.39,West,264,4.0,7.0,39,0.00,,,0.00,meteohub,2013-12-19 15:57:00,
2013-12-19 09:00:00,38.7,14.5,29.39,SSW,209,4.0,9.0,37,0.00,,,0.00,meteohub,2013-12-19 16:00:00,
2013-12-19 09:02:00,38.8,13.5,29.39,West,263,2.0,9.0,35,0.00,,,0.00,meteohub,2013-12-19 16:02:00,
2013-12-19 09:05:00,39.4,14.7,29.39,West,277,1.0,9.0,36,0.00,,,0.00,meteohub,2013-12-19 16:05:00,
2013-12-19 09:07:00,39.6,14.7,29.39,West,269,6.0,9.0,36,0.00,,,0.00,meteohub,2013-12-19 16:07:00,
2013-12-19 09:09:00,39.7,14.9,29.39,West,272,3.0,9.0,36,0.00,,,0.00,meteohub,2013-12-19 16:09:00,
2013-12-19 09:11:00,39.9,13.8,29.39,West,261,4.0,9.0,34,0.00,,,0.00,meteohub,2013-12-19 16:11:00,
2013-12-19 09:12:00,40.3,14.2,29.39,West,275,3.0,9.0,34,0.00,,,0.00,meteohub,2013-12-19 16:12:00,
2013-12-19 09:13:00,40.5,14.4,29.39,West,268,3.0,9.0,34,0.00,,,0.00,meteohub,2013-12-19 16:13:00,
2013-12-19 09:19:00,41.2,14.2,29.39,West,263,3.0,9.0,33,0.00,,,0.00,meteohub,2013-12-19 16:19:00,
2013-12-19 09:21:00,41.5,13.8,29.39,West,279,3.0,9.0,32,0.00,,,0.00,meteohub,2013-12-19 16:21:00,
2013-12-19 09:22:00,41.5,13.1,29.39,West,273,2.0,9.0,31,0.00,,,0.00,meteohub,2013-12-19 16:22:00,
2013-12-19 09:25:00,41.9,12.7,29.39,WNW,287,3.0,9.0,30,0.00,,,0.00,meteohub,2013-12-19 16:25:00,
2013-12-19 09:27:00,42.3,12.2,29.39,West,267,6.0,9.0,29,0.00,,,0.00,meteohub,2013-12-19 16:27:00,
2013-12-19 09:31:00,42.6,13.3,29.39,West,274,9.0,12.0,30,0.00,,,0.00,meteohub,2013-12-19 16:31:00,
2013-12-19 09:32:00,42.6,13.3,29.39,WNW,296,10.0,12.0,30,0.00,,,0.00,meteohub,2013-12-19 16:32:00,
2013-12-19 09:37:00,43.0,12.0,29.39,WSW,248,6.0,14.0,28,0.00,,,0.00,meteohub,2013-12-19 16:37:00,
2013-12-19 09:39:00,43.3,12.4,-100.00,WSW,252,8.0,14.0,28,0.00,,,0.00,meteohub,2013-12-19 16:39:00,
2013-12-19 09:41:00,43.3,12.4,29.39,West,260,7.0,14.0,28,0.00,,,0.00,meteohub,2013-12-19 16:41:00,
2013-12-19 09:43:00,43.5,11.7,29.39,NNW,342,5.0,14.0,27,0.00,,,0.00,meteohub,2013-12-19 16:43:00,
2013-12-19 09:45:00,43.7,12.7,29.39,WNW,288,6.0,14.0,28,0.00,,,0.00,meteohub,2013-12-19 16:45:00,
2013-12-19 09:47:00,43.9,12.0,29.39,West,269,6.0,14.0,27,0.00,,,0.00,meteohub,2013-12-19 16:47:00,
2013-12-19 09:49:00,44.1,11.3,29.40,North,351,6.0,14.0,26,0.00,,,0.00,meteohub,2013-12-19 16:49:00,
2013-12-19 09:51:00,44.1,12.2,29.39,WNW,301,5.0,12.0,27,0.00,,,0.00,meteohub,2013-12-19 16:51:00,
2013-12-19 09:52:00,44.2,12.4,29.39,WNW,291,5.0,12.0,27,0.00,,,0.00,meteohub,2013-12-19 16:52:00,
2013-12-19 09:55:00,44.2,11.5,29.39,WNW,290,10.0,12.0,26,0.00,,,0.00,meteohub,2013-12-19 16:55:00,
2013-12-19 09:59:00,44.2,11.5,29.39,West,275,5.0,12.0,26,0.00,,,0.00,meteohub,2013-12-19 16:59:00,
2013-12-19 10:01:00,44.4,11.7,29.39,NNE,12,5.0,16.0,26,0.00,,,0.00,meteohub,2013-12-19 17:01:00,
2013-12-19 10:02:00,44.4,11.7,29.39,NW,313,6.0,16.0,26,0.00,,,0.00,meteohub,2013-12-19 17:02:00,
2013-12-19 10:03:00,44.6,11.8,29.39,NW,305,3.0,16.0,26,0.00,,,0.00,meteohub,2013-12-19 17:03:00,
2013-12-19 10:07:00,45.0,12.2,29.39,NW,312,3.0,16.0,26,0.00,,,0.00,meteohub,2013-12-19 17:07:00,
2013-12-19 10:12:00,45.1,11.5,29.39,NNW,336,4.0,11.0,25,0.00,,,0.00,meteohub,2013-12-19 17:12:00,
2013-12-19 10:13:00,45.1,11.5,29.39,NW,304,3.0,11.0,25,0.00,,,0.00,meteohub,2013-12-19 17:13:00,
2013-12-19 10:17:00,45.0,11.3,29.39,North,355,2.0,7.0,25,0.00,,,0.00,meteohub,2013-12-19 17:17:00,
2013-12-19 10:21:00,45.1,11.5,29.38,WNW,283,5.0,7.0,25,0.00,,,0.00,meteohub,2013-12-19 17:21:00,
2013-12-19 10:22:00,45.1,11.5,29.38,NW,306,5.0,7.0,25,0.00,,,0.00,meteohub,2013-12-19 17:22:00,
2013-12-19 10:23:00,45.3,10.6,29.38,North,10,8.0,8.0,24,0.00,,,0.00,meteohub,2013-12-19 17:23:00,
2013-12-19 10:27:00,45.3,10.6,29.39,NNW,337,13.0,13.0,24,0.00,,,0.00,meteohub,2013-12-19 17:27:00,
2013-12-19 10:29:00,45.3,9.7,29.39,NW,312,4.0,13.0,23,0.00,,,0.00,meteohub,2013-12-19 17:29:00,
2013-12-19 10:31:00,45.3,9.7,29.39,North,11,9.0,18.0,23,0.00,,,0.00,meteohub,2013-12-19 17:31:00,
2013-12-19 10:34:00,45.3,9.7,29.38,NW,322,12.0,18.0,23,0.00,,,0.00,meteohub,2013-12-19 17:34:00,
2013-12-19 10:36:00,45.3,9.7,29.38,West,277,15.0,18.0,23,0.00,,,0.00,meteohub,2013-12-19 17:36:00,
2013-12-19 10:37:00,45.3,9.7,29.38,WNW,295,20.0,20.0,23,0.00,,,0.00,meteohub,2013-12-19 17:37:00,
2013-12-19 10:38:00,45.3,9.7,29.38,NNW,338,14.0,18.0,23,0.00,,,0.00,meteohub,2013-12-19 17:38:00,
2013-12-19 10:42:00,45.3,9.7,29.38,WNW,292,6.0,22.0,23,0.00,,,0.00,meteohub,2013-12-19 17:42:00,
2013-12-19 10:47:00,45.7,10.0,29.38,NW,315,10.0,24.0,23,0.00,,,0.00,meteohub,2013-12-19 17:47:00,
2013-12-19 10:48:00,45.7,10.0,29.38,NW,322,11.0,24.0,23,0.00,,,0.00,meteohub,2013-12-19 17:48:00,
2013-12-19 10:50:00,45.3,9.7,29.37,North,355,8.0,24.0,23,0.00,,,0.00,meteohub,2013-12-19 17:50:00,
2013-12-19 10:52:00,45.3,9.7,29.37,NW,323,6.0,24.0,23,0.00,,,0.00,meteohub,2013-12-19 17:52:00,
2013-12-19 10:56:00,45.5,9.9,29.37,WNW,301,7.0,22.0,23,0.00,,,0.00,meteohub,2013-12-19 17:56:00,
2013-12-19 10:58:00,45.5,9.9,29.37,WNW,292,7.0,22.0,23,0.00,,,0.00,meteohub,2013-12-19 17:58:00,
2013-12-19 11:02:00,45.7,10.0,29.37,NW,312,10.0,22.0,23,0.00,,,0.00,meteohub,2013-12-19 18:02:00,
2013-12-19 11:07:00,45.7,10.0,29.37,WNW,299,9.0,19.0,23,0.00,,,0.00,meteohub,2013-12-19 18:07:00,
2013-12-19 11:08:00,45.7,10.0,-100.00,NW,304,10.0,19.0,23,0.00,,,0.00,meteohub,2013-12-19 18:08:00,
2013-12-19 11:12:00,45.3,10.6,29.36,NNW,329,11.0,19.0,24,0.00,,,0.00,meteohub,2013-12-19 18:12:00,
2013-12-19 11:14:00,45.3,10.6,29.36,WNW,285,7.0,19.0,24,0.00,,,0.00,meteohub,2013-12-19 18:14:00,
2013-12-19 11:16:00,45.1,9.5,29.36,NNW,333,16.0,22.0,23,0.00,,,0.00,meteohub,2013-12-19 18:16:00,
2013-12-19 11:17:00,45.1,9.5,29.36,WNW,292,6.0,22.0,23,0.00,,,0.00,meteohub,2013-12-19 18:17:00,
2013-12-19 11:20:00,45.1,10.4,29.36,NNW,338,7.0,22.0,24,0.00,,,0.00,meteohub,2013-12-19 18:20:00,
2013-12-19 11:22:00,45.0,10.4,29.36,NNE,21,6.0,22.0,24,0.00,,,0.00,meteohub,2013-12-19 18:22:00,
2013-12-19 11:26:00,44.4,10.8,29.36,NNW,332,14.0,22.0,25,0.00,,,0.00,meteohub,2013-12-19 18:26:00,
2013-12-19 11:30:00,44.2,11.5,29.36,NW,319,10.0,19.0,26,0.00,,,0.00,meteohub,2013-12-19 18:30:00,
2013-12-19 11:32:00,44.1,11.3,29.36,NNW,331,10.0,19.0,26,0.00,,,0.00,meteohub,2013-12-19 18:32:00,
2013-12-19 11:36:00,44.1,12.2,29.36,NNE,15,14.0,16.0,27,0.00,,,0.00,meteohub,2013-12-19 18:36:00,
2013-12-19 11:37:00,44.1,12.2,29.36,NNW,348,13.0,16.0,27,0.00,,,0.00,meteohub,2013-12-19 18:37:00,
2013-12-19 11:38:00,44.1,12.2,29.36,NE,46,6.0,16.0,27,0.00,,,0.00,meteohub,2013-12-19 18:38:00,
2013-12-19 11:40:00,44.1,12.2,29.36,West,273,6.0,16.0,27,0.00,,,0.00,meteohub,2013-12-19 18:40:00,
2013-12-19 11:42:00,44.1,12.2,29.36,WNW,286,9.0,16.0,27,0.00,,,0.00,meteohub,2013-12-19 18:42:00,
2013-12-19 11:46:00,44.2,13.1,29.36,WNW,290,7.0,16.0,28,0.00,,,0.00,meteohub,2013-12-19 18:46:00,
2013-12-19 11:48:00,44.1,13.1,29.36,NW,316,9.0,16.0,28,0.00,,,0.00,meteohub,2013-12-19 18:48:00,
2013-12-19 11:50:00,43.9,12.9,29.35,WNW,292,12.0,19.0,28,0.00,,,0.00,meteohub,2013-12-19 18:50:00,
2013-12-19 11:52:00,43.9,12.9,29.36,WNW,292,15.0,19.0,28,0.00,,,0.00,meteohub,2013-12-19 18:52:00,
2013-12-19 11:55:00,43.9,13.6,29.35,NW,310,12.0,19.0,29,0.00,,,0.00,meteohub,2013-12-19 18:55:00,
2013-12-19 11:57:00,43.9,13.6,29.35,NNW,336,10.0,19.0,29,0.00,,,0.00,meteohub,2013-12-19 18:57:00,
2013-12-19 11:59:00,43.9,13.6,29.35,WNW,290,12.0,19.0,29,0.00,,,0.00,meteohub,2013-12-19 18:59:00,
2013-12-19 12:02:00,44.1,13.8,29.35,NW,305,10.0,22.0,29,0.00,,,0.00,meteohub,2013-12-19 19:02:00,
2013-12-19 12:05:00,44.1,13.1,29.35,WSW,252,15.0,22.0,28,0.00,,,0.00,meteohub,2013-12-19 19:05:00,
2013-12-19 12:07:00,44.1,13.8,29.35,WNW,298,8.0,22.0,29,0.00,,,0.00,meteohub,2013-12-19 19:07:00,
2013-12-19 12:11:00,44.2,14.0,29.35,NW,305,7.0,22.0,29,0.00,,,0.00,meteohub,2013-12-19 19:11:00,
2013-12-19 12:12:00,44.2,14.0,29.35,NE,47,10.0,22.0,29,0.00,,,0.00,meteohub,2013-12-19 19:12:00,
2013-12-19 12:15:00,44.1,13.8,29.35,NNE,26,6.0,22.0,29,0.00,,,0.00,meteohub,2013-12-19 19:15:00,
2013-12-19 12:17:00,44.2,14.7,29.34,NE,34,6.0,21.0,30,0.00,,,0.00,meteohub,2013-12-19 19:17:00,
2013-12-19 12:22:00,44.6,14.4,29.35,North,9,10.0,17.0,29,0.00,,,0.00,meteohub,2013-12-19 19:22:00,
2013-12-19 12:23:00,44.6,14.4,29.34,NW,319,8.0,17.0,29,0.00,,,0.00,meteohub,2013-12-19 19:23:00,
2013-12-19 12:27:00,45.0,14.5,29.34,NNE,25,9.0,13.0,29,0.00,,,0.00,meteohub,2013-12-19 19:27:00,
2013-12-19 12:29:00,44.4,13.3,29.34,NNE,23,7.0,13.0,28,0.00,,,0.00,meteohub,2013-12-19 19:29:00,
2013-12-19 12:31:00,44.2,14.0,29.34,WSW,238,10.0,14.0,29,0.00,,,0.00,meteohub,2013-12-19 19:31:00,
2013-12-19 12:32:00,44.2,14.0,29.34,NNE,23,11.0,14.0,29,0.00,,,0.00,meteohub,2013-12-19 19:32:00,
2013-12-19 12:33:00,44.1,13.8,29.34,NW,321,10.0,14.0,29,0.00,,,0.00,meteohub,2013-12-19 19:33:00,
2013-12-19 12:35:00,43.9,13.6,29.34,WSW,252,15.0,15.0,29,0.00,,,0.00,meteohub,2013-12-19 19:35:00,
2013-12-19 12:37:00,43.9,13.6,29.34,NNE,19,8.0,17.0,29,0.00,,,0.00,meteohub,2013-12-19 19:37:00,
2013-12-19 12:41:00,43.3,14.0,29.34,NNE,25,10.0,17.0,30,0.00,,,0.00,meteohub,2013-12-19 19:41:00,
2013-12-19 12:42:00,43.2,13.8,29.34,East,87,9.0,17.0,30,0.00,,,0.00,meteohub,2013-12-19 19:42:00,
2013-12-19 12:43:00,43.2,13.8,29.34,NE,51,6.0,17.0,30,0.00,,,0.00,meteohub,2013-12-19 19:43:00,
2013-12-19 12:47:00,43.3,14.0,29.34,NW,323,6.0,16.0,30,0.00,,,0.00,meteohub,2013-12-19 19:47:00,
2013-12-19 12:49:00,43.5,13.3,29.34,NW,324,10.0,16.0,29,0.00,,,0.00,meteohub,2013-12-19 19:49:00,
2013-12-19 12:51:00,43.7,13.5,29.34,NNE,18,4.0,16.0,29,0.00,,,0.00,meteohub,2013-12-19 19:51:00,
2013-12-19 12:55:00,44.1,13.8,29.34,NE,53,9.0,15.0,29,0.00,,,0.00,meteohub,2013-12-19 19:55:00,
2013-12-19 12:57:00,44.1,13.8,29.34,NNW,327,15.0,15.0,29,0.00,,,0.00,meteohub,2013-12-19 19:57:00,
2013-12-19 13:01:00,44.2,14.0,29.34,NNW,346,10.0,20.0,29,0.00,,,0.00,meteohub,2013-12-19 20:01:00,
2013-12-19 13:03:00,44.2,13.1,29.34,WNW,284,6.0,20.0,28,0.00,,,0.00,meteohub,2013-12-19 20:03:00,
2013-12-19 13:07:00,44.2,13.1,29.34,NW,325,9.0,20.0,28,0.00,,,0.00,meteohub,2013-12-19 20:07:00,
2013-12-19 13:09:00,44.2,13.1,29.33,WNW,296,6.0,20.0,28,0.00,,,0.00,meteohub,2013-12-19 20:09:00,
2013-12-19 13:12:00,44.4,13.3,29.33,WNW,294,11.0,20.0,28,0.00,,,0.00,meteohub,2013-12-19 20:12:00,
2013-12-19 13:13:00,44.2,13.1,29.32,NNW,332,10.0,20.0,28,0.00,,,0.00,meteohub,2013-12-19 20:13:00,
2013-12-19 13:17:00,44.2,12.4,29.33,ENE,58,6.0,19.0,27,0.00,,,0.00,meteohub,2013-12-19 20:17:00,
2013-12-19 13:22:00,44.1,12.2,29.33,NNW,330,5.0,16.0,27,0.00,,,0.00,meteohub,2013-12-19 20:22:00,
2013-12-19 13:23:00,44.1,12.2,29.33,WNW,300,10.0,16.0,27,0.00,,,0.00,meteohub,2013-12-19 20:23:00,
2013-12-19 13:27:00,44.2,12.4,29.33,NW,319,10.0,18.0,27,0.00,,,0.00,meteohub,2013-12-19 20:27:00,
2013-12-19 13:28:00,44.2,12.4,29.33,NNW,334,9.0,18.0,27,0.00,,,0.00,meteohub,2013-12-19 20:28:00,
2013-12-19 13:32:00,44.2,11.5,29.33,NNW,337,6.0,18.0,26,0.00,,,0.00,meteohub,2013-12-19 20:32:00,
2013-12-19 13:34:00,44.1,12.2,29.33,NW,308,7.0,18.0,27,0.00,,,0.00,meteohub,2013-12-19 20:34:00,
2013-12-19 13:36:00,44.2,11.5,29.33,WNW,299,14.0,19.0,26,0.00,,,0.00,meteohub,2013-12-19 20:36:00,
2013-12-19 13:38:00,44.1,11.3,29.33,NW,324,15.0,19.0,26,0.00,,,0.00,meteohub,2013-12-19 20:38:00,
2013-12-19 13:42:00,44.1,11.3,29.33,North,351,9.0,21.0,26,0.00,,,0.00,meteohub,2013-12-19 20:42:00,
2013-12-19 13:44:00,44.1,11.3,29.33,NW,304,11.0,21.0,26,0.00,,,0.00,meteohub,2013-12-19 20:44:00,
2013-12-19 13:46:00,44.1,11.3,29.33,NW,311,10.0,21.0,26,0.00,,,0.00,meteohub,2013-12-19 20:46:00,
2013-12-19 13:47:00,44.1,11.3,29.33,NW,326,7.0,21.0,26,0.00,,,0.00,meteohub,2013-12-19 20:47:00,
2013-12-19 13:50:00,44.2,11.5,29.33,WNW,296,12.0,21.0,26,0.00,,,0.00,meteohub,2013-12-19 20:50:00,
2013-12-19 13:52:00,44.2,10.6,29.33,NNW,338,10.0,21.0,25,0.00,,,0.00,meteohub,2013-12-19 20:52:00,
2013-12-19 13:54:00,44.1,10.4,29.33,NNE,28,11.0,21.0,25,0.00,,,0.00,meteohub,2013-12-19 20:54:00,
2013-12-19 13:56:00,44.1,10.4,29.33,West,281,13.0,19.0,25,0.00,,,0.00,meteohub,2013-12-19 20:56:00,
2013-12-19 13:58:00,44.1,11.3,-100.00,WNW,302,9.0,19.0,26,0.00,,,0.00,meteohub,2013-12-19 20:58:00,
2013-12-19 14:00:00,44.2,11.5,29.33,West,271,6.0,19.0,26,0.00,,,0.00,meteohub,2013-12-19 21:00:00,
2013-12-19 14:02:00,44.6,11.8,29.33,NNW,336,15.0,19.0,26,0.00,,,0.00,meteohub,2013-12-19 21:02:00,
2013-12-19 14:04:00,44.2,10.6,29.33,WNW,303,11.0,19.0,25,0.00,,,0.00,meteohub,2013-12-19 21:04:00,
2013-12-19 14:06:00,43.9,10.4,29.34,NW,313,11.0,19.0,25,0.00,,,0.00,meteohub,2013-12-19 21:06:00,
2013-12-19 14:07:00,43.9,10.4,29.34,NNW,331,11.0,19.0,25,0.00,,,0.00,meteohub,2013-12-19 21:07:00,
2013-12-19 14:08:00,43.7,11.1,29.33,NW,318,12.0,19.0,26,0.00,,,0.00,meteohub,2013-12-19 21:08:00,
2013-12-19 14:10:00,43.3,9.9,29.34,WNW,284,9.0,19.0,25,0.00,,,0.00,meteohub,2013-12-19 21:10:00,
2013-12-19 14:16:00,43.0,11.3,29.34,West,278,13.0,18.0,27,0.00,,,0.00,meteohub,2013-12-19 21:16:00,
2013-12-19 14:17:00,43.0,10.4,29.34,WNW,294,14.0,18.0,26,0.00,,,0.00,meteohub,2013-12-19 21:17:00,
2013-12-19 14:18:00,42.8,10.2,29.34,WNW,294,7.0,18.0,26,0.00,,,0.00,meteohub,2013-12-19 21:18:00,
2013-12-19 14:20:00,42.6,10.9,29.34,NW,309,9.0,18.0,27,0.00,,,0.00,meteohub,2013-12-19 21:20:00,
2013-12-19 14:24:00,42.3,10.6,29.34,WNW,286,18.0,18.0,27,0.00,,,0.00,meteohub,2013-12-19 21:24:00,
2013-12-19 14:26:00,42.3,10.6,29.34,NNW,343,11.0,19.0,27,0.00,,,0.00,meteohub,2013-12-19 21:26:00,
2013-12-19 14:32:00,42.1,10.6,29.34,WNW,300,6.0,21.0,27,0.00,,,0.00,meteohub,2013-12-19 21:32:00,
2013-12-19 14:34:00,42.1,10.6,29.35,NE,55,9.0,21.0,27,0.00,,,0.00,meteohub,2013-12-19 21:34:00,
2013-12-19 14:38:00,42.1,9.7,29.35,WNW,302,10.0,21.0,26,0.00,,,0.00,meteohub,2013-12-19 21:38:00,
2013-12-19 14:40:00,42.1,10.6,29.35,NNW,327,9.0,21.0,27,0.00,,,0.00,meteohub,2013-12-19 21:40:00,
2013-12-19 14:42:00,42.1,10.6,29.35,NE,40,5.0,21.0,27,0.00,,,0.00,meteohub,2013-12-19 21:42:00,
2013-12-19 14:44:00,42.1,10.6,29.35,NNW,340,7.0,21.0,27,0.00,,,0.00,meteohub,2013-12-19 21:44:00,
2013-12-19 14:47:00,42.1,10.6,29.35,West,267,3.0,19.0,27,0.00,,,0.00,meteohub,2013-12-19 21:47:00,
2013-12-19 14:50:00,41.9,12.0,29.36,NE,34,6.0,19.0,29,0.00,,,0.00,meteohub,2013-12-19 21:50:00,
2013-12-19 14:52:00,41.7,11.8,29.36,NW,307,4.0,19.0,29,0.00,,,0.00,meteohub,2013-12-19 21:52:00,
2013-12-19 14:54:00,41.2,12.0,29.36,NW,311,9.0,19.0,30,0.00,,,0.00,meteohub,2013-12-19 21:54:00,
2013-12-19 14:56:00,40.8,11.8,29.36,NW,312,9.0,12.0,30,0.00,,,0.00,meteohub,2013-12-19 21:56:00,
2013-12-19 14:57:00,40.8,11.8,29.36,NW,312,9.0,12.0,30,0.00,,,0.00,meteohub,2013-12-19 21:57:00,
2013-12-19 14:59:00,40.6,11.7,29.36,NNW,338,12.0,12.0,30,0.00,,,0.00,meteohub,2013-12-19 21:59:00,
2013-12-19 15:02:00,40.6,11.7,29.36,NW,319,5.0,13.0,30,0.00,,,0.00,meteohub,2013-12-19 22:02:00,
2013-12-19 15:05:00,40.6,11.7,29.36,North,5,7.0,13.0,30,0.00,,,0.00,meteohub,2013-12-19 22:05:00,
2013-12-19 15:07:00,40.6,12.4,29.36,NW,325,4.0,15.0,31,0.00,,,0.00,meteohub,2013-12-19 22:07:00,
2013-12-19 15:11:00,40.3,12.0,29.37,NW,309,5.0,15.0,31,0.00,,,0.00,meteohub,2013-12-19 22:11:00,
2013-12-19 15:12:00,40.3,12.7,29.37,NW,323,4.0,15.0,32,0.00,,,0.00,meteohub,2013-12-19 22:12:00,
2013-12-19 15:13:00,40.5,12.2,29.37,WNW,298,6.0,15.0,31,0.00,,,0.00,meteohub,2013-12-19 22:13:00,
2013-12-19 15:15:00,40.5,12.2,29.37,NNW,327,5.0,15.0,31,0.00,,,0.00,meteohub,2013-12-19 22:15:00,
2013-12-19 15:17:00,40.5,12.2,29.37,NE,40,13.0,14.0,31,0.00,,,0.00,meteohub,2013-12-19 22:17:00,
2013-12-19 15:19:00,40.5,12.2,29.37,WNW,298,4.0,14.0,31,0.00,,,0.00,meteohub,2013-12-19 22:19:00,
2013-12-19 15:22:00,40.8,12.6,29.37,NW,315,3.0,16.0,31,0.00,,,0.00,meteohub,2013-12-19 22:22:00,
2013-12-19 15:25:00,41.2,12.7,29.37,NW,306,3.0,16.0,31,0.00,,,0.00,meteohub,2013-12-19 22:25:00,
2013-12-19 15:27:00,41.5,13.1,29.37,West,274,4.0,16.0,31,0.00,,,0.00,meteohub,2013-12-19 22:27:00,
2013-12-19 15:31:00,42.3,12.2,29.37,WNW,284,6.0,16.0,29,0.00,,,0.00,meteohub,2013-12-19 22:31:00,
2013-12-19 15:32:00,42.3,12.2,29.37,WNW,303,8.0,16.0,29,0.00,,,0.00,meteohub,2013-12-19 22:32:00,
2013-12-19 15:33:00,42.3,12.2,29.38,West,281,5.0,16.0,29,0.00,,,0.00,meteohub,2013-12-19 22:33:00,
2013-12-19 15:37:00,42.1,12.9,29.38,NW,317,6.0,17.0,30,0.00,,,0.00,meteohub,2013-12-19 22:37:00,
2013-12-19 15:39:00,42.1,12.9,29.38,NW,321,5.0,17.0,30,0.00,,,0.00,meteohub,2013-12-19 22:39:00,
2013-12-19 15:43:00,42.3,12.2,29.38,WNW,294,12.0,17.0,29,0.00,,,0.00,meteohub,2013-12-19 22:43:00,
2013-12-19 15:45:00,42.1,12.0,29.39,NW,321,8.0,17.0,29,0.00,,,0.00,meteohub,2013-12-19 22:45:00,
2013-12-19 15:47:00,41.7,11.8,29.39,WNW,292,6.0,17.0,29,0.00,,,0.00,meteohub,2013-12-19 22:47:00,
2013-12-19 15:51:00,41.4,12.2,29.39,NW,306,11.0,15.0,30,0.00,,,0.00,meteohub,2013-12-19 22:51:00,
2013-12-19 15:52:00,41.4,12.2,29.39,West,277,13.0,15.0,30,0.00,,,0.00,meteohub,2013-12-19 22:52:00,
2013-12-19 15:55:00,40.8,11.8,29.39,WNW,290,9.0,15.0,30,0.00,,,0.00,meteohub,2013-12-19 22:55:00,
2013-12-19 15:57:00,40.6,12.4,29.39,WNW,292,6.0,15.0,31,0.00,,,0.00,meteohub,2013-12-19 22:57:00,
2013-12-19 16:01:00,39.6,11.5,29.39,WNW,288,10.0,15.0,31,0.00,,,0.00,meteohub,2013-12-19 23:01:00,
2013-12-19 16:02:00,39.6,11.5,29.39,NW,325,12.0,15.0,31,0.00,,,0.00,meteohub,2013-12-19 23:02:00,
2013-12-19 16:03:00,39.2,11.8,29.40,North,355,7.0,15.0,32,0.00,,,0.00,meteohub,2013-12-19 23:03:00,
2013-12-19 16:09:00,39.0,11.7,29.40,NNW,329,10.0,15.0,32,0.00,,,0.00,meteohub,2013-12-19 23:09:00,
2013-12-19 16:11:00,38.8,11.5,29.40,NW,314,11.0,16.0,32,0.00,,,0.00,meteohub,2013-12-19 23:11:00,
2013-12-19 16:13:00,38.5,11.8,29.41,NNW,333,7.0,16.0,33,0.00,,,0.00,meteohub,2013-12-19 23:13:00,
2013-12-19 16:15:00,38.3,11.7,29.41,WNW,285,13.0,16.0,33,0.00,,,0.00,meteohub,2013-12-19 23:15:00,
2013-12-19 16:17:00,38.1,11.5,29.41,NW,305,7.0,16.0,33,0.00,,,0.00,meteohub,2013-12-19 23:17:00,
2013-12-19 16:21:00,37.8,11.8,29.42,WNW,286,6.0,16.0,34,0.00,,,0.00,meteohub,2013-12-19 23:21:00,
2013-12-19 16:22:00,37.8,11.8,29.42,NW,304,6.0,16.0,34,0.00,,,0.00,meteohub,2013-12-19 23:22:00,
2013-12-19 16:23:00,37.8,11.8,29.42,NW,312,10.0,16.0,34,0.00,,,0.00,meteohub,2013-12-19 23:23:00,
2013-12-19 16:27:00,37.6,11.7,29.42,NW,315,12.0,15.0,34,0.00,,,0.00,meteohub,2013-12-19 23:27:00,
2013-12-19 16:29:00,37.4,11.7,29.42,NNW,335,11.0,15.0,34,0.00,,,0.00,meteohub,2013-12-19 23:29:00,
2013-12-19 16:31:00,37.2,11.5,29.42,West,279,6.0,14.0,34,0.00,,,0.00,meteohub,2013-12-19 23:31:00,
2013-12-19 16:32:00,37.2,11.5,29.42,NW,315,5.0,14.0,34,0.00,,,0.00,meteohub,2013-12-19 23:32:00,
2013-12-19 16:33:00,37.2,11.5,29.42,WNW,294,11.0,14.0,34,0.00,,,0.00,meteohub,2013-12-19 23:33:00,
2013-12-19 16:37:00,37.0,11.8,29.43,NW,310,9.0,13.0,35,0.00,,,0.00,meteohub,2013-12-19 23:37:00,
2013-12-19 16:40:00,37.0,11.8,29.43,WNW,299,4.0,13.0,35,0.00,,,0.00,meteohub,2013-12-19 23:40:00,
2013-12-19 16:42:00,37.0,11.8,29.43,North,11,5.0,15.0,35,0.00,,,0.00,meteohub,2013-12-19 23:42:00,
2013-12-19 16:47:00,34.5,16.9,29.44,ENE,58,1.0,15.0,48,0.00,,,0.00,meteohub,2013-12-19 23:47:00,
2013-12-19 16:48:00,34.0,16.9,29.44,ENE,67,1.0,15.0,49,0.00,,,0.00,meteohub,2013-12-19 23:48:00,
2013-12-19 16:50:00,32.5,17.2,29.44,East,93,1.0,15.0,53,0.00,,,0.00,meteohub,2013-12-19 23:50:00,
2013-12-19 16:52:00,31.3,18.1,29.44,East,82,0.0,14.0,58,0.00,,,0.00,meteohub,2013-12-19 23:52:00,
2013-12-19 16:54:00,30.0,17.8,29.44,East,86,2.0,14.0,60,0.00,,,0.00,meteohub,2013-12-19 23:54:00,
2013-12-19 16:58:00,28.6,18.7,29.44,North,9,3.0,7.0,66,0.00,,,0.00,meteohub,2013-12-19 23:58:00,
2013-12-19 17:00:00,27.9,18.3,29.45,NW,324,1.0,7.0,67,0.00,,,0.00,meteohub,2013-12-20 00:00:00,
2013-12-19 17:02:00,27.5,18.7,29.45,WSW,244,1.0,6.0,69,0.00,,,0.00,meteohub,2013-12-20 00:02:00,
2013-12-19 17:06:00,26.8,18.7,29.45,ENE,60,1.0,5.0,71,0.00,,,0.00,meteohub,2013-12-20 00:06:00,
2013-12-19 17:07:00,26.6,18.9,29.45,ENE,78,0.0,5.0,72,0.00,,,0.00,meteohub,2013-12-20 00:07:00,
2013-12-19 17:08:00,26.4,18.7,29.45,NE,42,0.0,5.0,72,0.00,,,0.00,meteohub,2013-12-20 00:08:00,
2013-12-19 17:12:00,26.1,18.9,29.46,East,86,4.0,6.0,74,0.00,,,0.00,meteohub,2013-12-20 00:12:00,
2013-12-19 17:14:00,25.9,19.0,29.46,ENE,58,0.0,6.0,75,0.00,,,0.00,meteohub,2013-12-20 00:14:00,
2013-12-19 17:16:00,25.7,18.9,29.45,WNW,285,0.0,6.0,75,0.00,,,0.00,meteohub,2013-12-20 00:16:00,
2013-12-19 17:18:00,25.5,18.7,29.45,ENE,65,1.0,6.0,75,0.00,,,0.00,meteohub,2013-12-20 00:18:00,
2013-12-19 17:20:00,25.3,18.9,29.46,ENE,76,1.0,6.0,76,0.00,,,0.00,meteohub,2013-12-20 00:20:00,
2013-12-19 17:22:00,25.3,18.9,29.46,ESE,104,0.0,5.0,76,0.00,,,0.00,meteohub,2013-12-20 00:22:00,
2013-12-19 17:24:00,25.2,19.0,29.46,WNW,283,0.0,5.0,77,0.00,,,0.00,meteohub,2013-12-20 00:24:00,
2013-12-19 17:27:00,25.0,18.9,29.46,ENE,69,1.0,5.0,77,0.00,,,0.00,meteohub,2013-12-20 00:27:00,
2013-12-19 17:28:00,25.0,19.0,29.47,NNW,335,0.0,5.0,78,0.00,,,0.00,meteohub,2013-12-20 00:28:00,
2013-12-19 17:30:00,25.0,18.9,29.47,ENE,63,0.0,5.0,77,0.00,,,0.00,meteohub,2013-12-20 00:30:00,
2013-12-19 17:32:00,24.8,18.9,29.47,East,91,0.0,3.0,78,0.00,,,0.00,meteohub,2013-12-20 00:32:00,
2013-12-19 17:36:00,24.6,18.7,29.47,ESE,105,1.0,2.0,78,0.00,,,0.00,meteohub,2013-12-20 00:36:00,
2013-12-19 17:38:00,24.4,18.9,29.47,ESE,105,0.0,2.0,79,0.00,,,0.00,meteohub,2013-12-20 00:38:00,
2013-12-19 17:42:00,24.3,18.7,29.47,WNW,282,0.0,2.0,79,0.00,,,0.00,meteohub,2013-12-20 00:42:00,
2013-12-19 17:46:00,24.1,18.5,29.48,West,276,0.0,3.0,79,0.00,,,0.00,meteohub,2013-12-20 00:46:00,
2013-12-19 17:47:00,24.1,18.5,29.48,West,276,0.0,3.0,79,0.00,,,0.00,meteohub,2013-12-20 00:47:00,
2013-12-19 17:48:00,24.1,18.5,29.48,WNW,300,0.0,3.0,79,0.00,,,0.00,meteohub,2013-12-20 00:48:00,
2013-12-19 17:50:00,24.1,18.5,29.48,NE,55,0.0,3.0,79,0.00,,,0.00,meteohub,2013-12-20 00:50:00,
2013-12-19 17:56:00,23.5,18.3,29.49,SE,145,0.0,2.0,80,0.00,,,0.00,meteohub,2013-12-20 00:56:00,
2013-12-19 17:57:00,23.5,18.3,29.49,SSW,192,0.0,2.0,80,0.00,,,0.00,meteohub,2013-12-20 00:57:00,
2013-12-19 17:58:00,23.5,18.5,29.49,SW,236,0.0,2.0,81,0.00,,,0.00,meteohub,2013-12-20 00:58:00,
2013-12-19 18:02:00,23.2,18.1,29.49,WNW,283,0.0,2.0,81,0.00,,,0.00,meteohub,2013-12-20 01:02:00,
2013-12-19 18:04:00,23.2,18.5,29.49,West,275,0.0,2.0,82,0.00,,,0.00,meteohub,2013-12-20 01:04:00,
2013-12-19 18:07:00,22.8,18.5,29.49,East,79,0.0,2.0,83,0.00,,,0.00,meteohub,2013-12-20 01:07:00,
2013-12-19 18:10:00,22.6,18.5,29.50,East,80,0.0,2.0,84,0.00,,,0.00,meteohub,2013-12-20 01:10:00,
2013-12-19 18:12:00,22.5,18.7,29.50,West,275,0.0,2.0,85,0.00,,,0.00,meteohub,2013-12-20 01:12:00,
2013-12-19 18:15:00,22.5,18.9,29.50,East,86,0.0,2.0,86,0.00,,,0.00,meteohub,2013-12-20 01:15:00,
2013-12-19 18:17:00,22.5,18.9,29.50,SSE,157,0.0,2.0,86,0.00,,,0.00,meteohub,2013-12-20 01:17:00,
2013-12-19 18:19:00,22.5,18.9,29.50,East,98,0.0,2.0,86,0.00,,,0.00,meteohub,2013-12-20 01:19:00,
2013-12-19 18:25:00,22.3,19.0,29.50,East,98,1.0,1.0,87,0.00,,,0.00,meteohub,2013-12-20 01:25:00,
2013-12-19 18:27:00,22.1,19.0,29.50,NW,311,0.0,2.0,88,0.00,,,0.00,meteohub,2013-12-20 01:27:00,
2013-12-19 18:31:00,21.9,18.9,29.51,ENE,58,1.0,2.0,88,0.00,,,0.00,meteohub,2013-12-20 01:31:00,
2013-12-19 18:33:00,21.9,18.9,-100.00,NW,321,0.0,2.0,88,0.00,,,0.00,meteohub,2013-12-20 01:33:00,
2013-12-19 18:35:00,21.9,19.2,29.51,NNW,340,0.0,2.0,89,0.00,,,0.00,meteohub,2013-12-20 01:35:00,
2013-12-19 18:37:00,21.9,19.2,29.51,NW,318,0.0,3.0,89,0.00,,,0.00,meteohub,2013-12-20 01:37:00,
2013-12-19 18:42:00,21.7,19.0,29.51,East,98,0.0,3.0,89,0.00,,,0.00,meteohub,2013-12-20 01:42:00,
2013-12-19 18:43:00,21.7,19.0,29.51,ESE,108,1.0,3.0,89,0.00,,,0.00,meteohub,2013-12-20 01:43:00,
2013-12-19 18:45:00,21.6,18.9,29.51,NW,304,0.0,3.0,89,0.00,,,0.00,meteohub,2013-12-20 01:45:00,
2013-12-19 18:47:00,21.6,18.9,29.51,ENE,67,0.0,4.0,89,0.00,,,0.00,meteohub,2013-12-20 01:47:00,
2013-12-19 18:51:00,21.2,18.5,29.51,NE,51,0.0,4.0,89,0.00,,,0.00,meteohub,2013-12-20 01:51:00,
2013-12-19 18:53:00,21.0,18.3,29.51,East,86,0.0,4.0,89,0.00,,,0.00,meteohub,2013-12-20 01:53:00,
2013-12-19 18:55:00,21.0,18.5,29.51,East,89,0.0,4.0,90,0.00,,,0.00,meteohub,2013-12-20 01:55:00,
2013-12-19 18:57:00,20.8,18.3,29.51,West,271,0.0,4.0,90,0.00,,,0.00,meteohub,2013-12-20 01:57:00,
2013-12-19 19:01:00,20.8,18.3,29.51,ESE,119,0.0,2.0,90,0.00,,,0.00,meteohub,2013-12-20 02:01:00,
2013-12-19 19:03:00,20.7,18.1,29.52,WSW,254,0.0,2.0,90,0.00,,,0.00,meteohub,2013-12-20 02:03:00,
2013-12-19 19:07:00,20.7,18.1,29.51,West,266,0.0,2.0,90,0.00,,,0.00,meteohub,2013-12-20 02:07:00,
2013-12-19 19:09:00,20.7,18.5,29.52,East,87,0.0,2.0,91,0.00,,,0.00,meteohub,2013-12-20 02:09:00,
2013-12-19 19:11:00,20.7,18.5,29.52,East,87,0.0,2.0,91,0.00,,,0.00,meteohub,2013-12-20 02:11:00,
2013-12-19 19:13:00,20.7,18.5,29.52,East,86,0.0,2.0,91,0.00,,,0.00,meteohub,2013-12-20 02:13:00,
2013-12-19 19:17:00,20.5,18.0,29.52,East,86,0.0,1.0,90,0.00,,,0.00,meteohub,2013-12-20 02:17:00,
2013-12-19 19:20:00,20.5,18.3,29.52,West,279,0.0,1.0,91,0.00,,,0.00,meteohub,2013-12-20 02:20:00,
2013-12-19 19:22:00,20.5,18.3,29.52,NW,310,0.0,0.0,91,0.00,,,0.00,meteohub,2013-12-20 02:22:00,
2013-12-19 19:28:00,20.5,18.3,29.52,WNW,303,0.0,1.0,91,0.00,,,0.00,meteohub,2013-12-20 02:28:00,
2013-12-19 19:30:00,20.5,18.5,29.52,WNW,303,0.0,1.0,92,0.00,,,0.00,meteohub,2013-12-20 02:30:00,
2013-12-19 19:32:00,20.5,18.5,29.52,WNW,292,0.0,1.0,92,0.00,,,0.00,meteohub,2013-12-20 02:32:00,
2013-12-19 19:34:00,20.5,18.5,29.52,WNW,292,0.0,1.0,92,0.00,,,0.00,meteohub,2013-12-20 02:34:00,
2013-12-19 19:38:00,20.5,18.3,29.52,WNW,292,0.0,0.0,91,0.00,,,0.00,meteohub,2013-12-20 02:38:00,
2013-12-19 19:40:00,20.3,18.1,29.52,WNW,292,0.0,0.0,91,0.00,,,0.00,meteohub,2013-12-20 02:40:00,
2013-12-19 19:42:00,20.1,18.0,29.52,West,281,0.0,0.0,91,0.00,,,0.00,meteohub,2013-12-20 02:42:00,
2013-12-19 19:44:00,20.3,18.3,-100.00,West,280,0.0,0.0,92,0.00,,,0.00,meteohub,2013-12-20 02:44:00,
2013-12-19 19:47:00,20.3,18.3,29.52,West,280,0.0,0.0,92,0.00,,,0.00,meteohub,2013-12-20 02:47:00,
2013-12-19 19:50:00,20.3,18.3,29.52,West,280,0.0,0.0,92,0.00,,,0.00,meteohub,2013-12-20 02:50:00,
2013-12-19 19:52:00,20.3,18.3,29.52,West,274,0.0,0.0,92,0.00,,,0.00,meteohub,2013-12-20 02:52:00,
2013-12-19 19:57:00,20.1,18.1,29.52,West,273,0.0,0.0,92,0.00,,,0.00,meteohub,2013-12-20 02:57:00,
2013-12-19 19:58:00,20.1,18.1,29.52,West,273,0.0,0.0,92,0.00,,,0.00,meteohub,2013-12-20 02:58:00,
2013-12-19 20:00:00,20.1,18.1,29.52,West,273,0.0,0.0,92,0.00,,,0.00,meteohub,2013-12-20 03:00:00,
2013-12-19 20:04:00,20.1,18.1,29.52,West,273,0.0,0.0,92,0.00,,,0.00,meteohub,2013-12-20 03:04:00,
2013-12-19 20:06:00,20.1,18.1,29.52,West,273,0.0,0.0,92,0.00,,,0.00,meteohub,2013-12-20 03:06:00,
2013-12-19 20:07:00,19.9,18.0,29.52,West,273,0.0,0.0,92,0.00,,,0.00,meteohub,2013-12-20 03:07:00,
2013-12-19 20:10:00,19.9,18.0,29.52,West,273,0.0,0.0,92,0.00,,,0.00,meteohub,2013-12-20 03:10:00,
2013-12-19 20:12:00,20.1,18.1,29.52,West,273,0.0,0.0,92,0.00,,,0.00,meteohub,2013-12-20 03:12:00,
2013-12-19 20:14:00,20.1,18.1,29.52,West,273,0.0,0.0,92,0.00,,,0.00,meteohub,2013-12-20 03:14:00,
2013-12-19 20:16:00,20.1,18.1,29.52,West,273,0.0,0.0,92,0.00,,,0.00,meteohub,2013-12-20 03:16:00,
2013-12-19 20:17:00,20.1,18.1,29.52,West,273,0.0,0.0,92,0.00,,,0.00,meteohub,2013-12-20 03:17:00,
2013-12-19 20:22:00,20.1,18.1,29.52,West,273,0.0,0.0,92,0.00,,,0.00,meteohub,2013-12-20 03:22:00,
2013-12-19 20:26:00,19.9,18.0,29.52,WSW,254,0.0,0.0,92,0.00,,,0.00,meteohub,2013-12-20 03:26:00,
2013-12-19 20:27:00,19.9,18.0,29.52,WSW,254,0.0,0.0,92,0.00,,,0.00,meteohub,2013-12-20 03:27:00,
2013-12-19 20:32:00,19.9,18.0,29.52,WSW,254,0.0,1.0,92,0.00,,,0.00,meteohub,2013-12-20 03:32:00,
2013-12-19 20:34:00,19.9,18.0,29.52,WSW,254,0.0,1.0,92,0.00,,,0.00,meteohub,2013-12-20 03:34:00,
2013-12-19 20:40:00,19.8,17.8,29.51,ENE,70,0.0,1.0,92,0.00,,,0.00,meteohub,2013-12-20 03:40:00,
2013-12-19 20:44:00,19.6,17.6,29.51,ENE,73,0.0,1.0,92,0.00,,,0.00,meteohub,2013-12-20 03:44:00,
2013-12-19 20:46:00,19.6,17.6,29.51,NW,315,0.0,1.0,92,0.00,,,0.00,meteohub,2013-12-20 03:46:00,
2013-12-19 20:47:00,19.6,17.6,29.51,NW,315,0.0,1.0,92,0.00,,,0.00,meteohub,2013-12-20 03:47:00,
2013-12-19 20:50:00,19.4,17.2,29.52,ENE,69,0.0,1.0,91,0.00,,,0.00,meteohub,2013-12-20 03:50:00,
2013-12-19 20:52:00,19.4,17.2,29.52,ENE,78,1.0,1.0,91,0.00,,,0.00,meteohub,2013-12-20 03:52:00,
2013-12-19 20:53:00,19.2,17.1,29.52,East,87,0.0,1.0,91,0.00,,,0.00,meteohub,2013-12-20 03:53:00,
2013-12-19 20:55:00,19.0,16.9,29.51,East,87,0.0,1.0,91,0.00,,,0.00,meteohub,2013-12-20 03:55:00,
2013-12-19 20:57:00,18.9,16.7,29.51,ENE,75,0.0,2.0,91,0.00,,,0.00,meteohub,2013-12-20 03:57:00,
2013-12-19 20:59:00,18.9,16.7,29.52,ENE,76,0.0,2.0,91,0.00,,,0.00,meteohub,2013-12-20 03:59:00,
2013-12-19 21:01:00,18.7,16.5,29.51,East,85,0.0,2.0,91,0.00,,,0.00,meteohub,2013-12-20 04:01:00,
2013-12-19 21:07:00,18.3,16.2,29.51,East,96,0.0,2.0,91,0.00,,,0.00,meteohub,2013-12-20 04:07:00,
2013-12-19 21:09:00,18.3,16.2,29.52,East,96,1.0,2.0,91,0.00,,,0.00,meteohub,2013-12-20 04:09:00,
2013-12-19 21:12:00,18.1,16.0,29.52,ENE,74,0.0,2.0,91,0.00,,,0.00,meteohub,2013-12-20 04:12:00,
2013-12-19 21:13:00,18.1,16.0,29.51,East,80,0.0,2.0,91,0.00,,,0.00,meteohub,2013-12-20 04:13:00,
2013-12-19 21:17:00,18.0,15.8,29.52,East,80,0.0,1.0,91,0.00,,,0.00,meteohub,2013-12-20 04:17:00,
2013-12-19 21:19:00,18.0,15.8,29.52,East,84,0.0,1.0,91,0.00,,,0.00,meteohub,2013-12-20 04:19:00,
2013-12-19 21:22:00,17.8,15.3,29.52,East,89,0.0,2.0,90,0.00,,,0.00,meteohub,2013-12-20 04:22:00,
2013-12-19 21:25:00,17.8,15.6,29.52,ENE,66,0.0,2.0,91,0.00,,,0.00,meteohub,2013-12-20 04:25:00,
2013-12-19 21:27:00,17.6,15.4,29.52,ENE,61,0.0,2.0,91,0.00,,,0.00,meteohub,2013-12-20 04:27:00,
2013-12-19 21:29:00,17.6,15.4,29.52,ENE,63,0.0,2.0,91,0.00,,,0.00,meteohub,2013-12-20 04:29:00,
2013-12-19 21:32:00,17.4,15.3,29.52,West,263,0.0,2.0,91,0.00,,,0.00,meteohub,2013-12-20 04:32:00,
2013-12-19 21:33:00,17.6,15.4,29.52,WNW,290,0.0,2.0,91,0.00,,,0.00,meteohub,2013-12-20 04:33:00,
2013-12-19 21:35:00,17.4,15.3,29.52,East,92,0.0,2.0,91,0.00,,,0.00,meteohub,2013-12-20 04:35:00,
2013-12-19 21:37:00,17.4,15.1,29.52,ESE,103,1.0,1.0,90,0.00,,,0.00,meteohub,2013-12-20 04:37:00,
2013-12-19 21:42:00,17.2,14.9,29.52,SE,130,1.0,1.0,90,0.00,,,0.00,meteohub,2013-12-20 04:42:00,
2013-12-19 21:43:00,17.2,15.1,29.52,ENE,78,0.0,1.0,91,0.00,,,0.00,meteohub,2013-12-20 04:43:00,
2013-12-19 21:45:00,17.2,14.9,29.52,ENE,77,1.0,1.0,90,0.00,,,0.00,meteohub,2013-12-20 04:45:00,
2013-12-19 21:47:00,17.1,14.7,29.52,NNE,28,0.0,3.0,90,0.00,,,0.00,meteohub,2013-12-20 04:47:00,
2013-12-19 21:49:00,17.1,14.7,29.52,East,90,0.0,3.0,90,0.00,,,0.00,meteohub,2013-12-20 04:49:00,
2013-12-19 21:52:00,17.1,14.7,29.52,East,86,1.0,3.0,90,0.00,,,0.00,meteohub,2013-12-20 04:52:00,
2013-12-19 21:53:00,16.9,14.5,29.52,East,86,0.0,3.0,90,0.00,,,0.00,meteohub,2013-12-20 04:53:00,
2013-12-19 21:55:00,16.9,14.5,29.52,East,96,0.0,3.0,90,0.00,,,0.00,meteohub,2013-12-20 04:55:00,
2013-12-19 21:57:00,16.9,14.5,29.52,East,96,0.0,3.0,90,0.00,,,0.00,meteohub,2013-12-20 04:57:00,
2013-12-19 21:59:00,16.7,14.5,29.52,East,92,0.0,3.0,91,0.00,,,0.00,meteohub,2013-12-20 04:59:00,
2013-12-19 22:01:00,16.5,14.2,29.52,East,92,0.0,1.0,90,0.00,,,0.00,meteohub,2013-12-20 05:01:00,
2013-12-19 22:02:00,16.5,14.2,29.52,East,92,0.0,1.0,90,0.00,,,0.00,meteohub,2013-12-20 05:02:00,
2013-12-19 22:03:00,16.5,14.4,29.52,East,92,0.0,1.0,91,0.00,,,0.00,meteohub,2013-12-20 05:03:00,
2013-12-19 22:05:00,16.5,14.4,29.52,East,92,0.0,1.0,91,0.00,,,0.00,meteohub,2013-12-20 05:05:00,
2013-12-19 22:07:00,16.5,14.4,29.52,East,92,0.0,1.0,91,0.00,,,0.00,meteohub,2013-12-20 05:07:00,
2013-12-19 22:09:00,16.5,14.4,29.52,East,92,0.0,1.0,91,0.00,,,0.00,meteohub,2013-12-20 05:09:00,
2013-12-19 22:11:00,16.7,14.5,29.52,East,92,0.0,1.0,91,0.00,,,0.00,meteohub,2013-12-20 05:11:00,
2013-12-19 22:12:00,16.7,14.5,29.52,East,92,0.0,1.0,91,0.00,,,0.00,meteohub,2013-12-20 05:12:00,
2013-12-19 22:17:00,16.9,14.7,29.51,NW,316,0.0,1.0,91,0.00,,,0.00,meteohub,2013-12-20 05:17:00,
2013-12-19 22:20:00,16.7,14.7,29.52,WNW,295,0.0,1.0,92,0.00,,,0.00,meteohub,2013-12-20 05:20:00,
2013-12-19 22:22:00,16.7,14.7,29.51,WNW,300,1.0,1.0,92,0.00,,,0.00,meteohub,2013-12-20 05:22:00,
2013-12-19 22:24:00,16.7,14.7,29.52,WNW,296,0.0,1.0,92,0.00,,,0.00,meteohub,2013-12-20 05:24:00,
2013-12-19 22:26:00,16.9,14.9,29.52,WNW,292,0.0,1.0,92,0.00,,,0.00,meteohub,2013-12-20 05:26:00,
2013-12-19 22:28:00,16.9,15.3,29.52,West,271,1.0,1.0,93,0.00,,,0.00,meteohub,2013-12-20 05:28:00,
2013-12-19 22:30:00,16.9,15.3,29.52,WNW,294,0.0,1.0,93,0.00,,,0.00,meteohub,2013-12-20 05:30:00,
2013-12-19 22:32:00,16.9,15.3,29.52,NW,311,0.0,2.0,93,0.00,,,0.00,meteohub,2013-12-20 05:32:00,
2013-12-19 22:37:00,17.1,15.4,29.52,WNW,301,0.0,2.0,93,0.00,,,0.00,meteohub,2013-12-20 05:37:00,
2013-12-19 22:40:00,16.9,15.3,29.52,ENE,77,0.0,2.0,93,0.00,,,0.00,meteohub,2013-12-20 05:40:00,
2013-12-19 22:42:00,16.9,15.3,29.52,ENE,76,0.0,1.0,93,0.00,,,0.00,meteohub,2013-12-20 05:42:00,
2013-12-19 22:44:00,16.9,14.9,29.52,East,98,0.0,1.0,92,0.00,,,0.00,meteohub,2013-12-20 05:44:00,
2013-12-19 22:46:00,16.9,14.9,29.52,East,98,0.0,1.0,92,0.00,,,0.00,meteohub,2013-12-20 05:46:00,
2013-12-19 22:47:00,16.9,14.9,29.52,East,98,0.0,1.0,92,0.00,,,0.00,meteohub,2013-12-20 05:47:00,
2013-12-19 22:52:00,17.1,15.4,29.53,East,90,0.0,1.0,93,0.00,,,0.00,meteohub,2013-12-20 05:52:00,
2013-12-19 22:54:00,17.1,15.1,29.53,East,82,0.0,1.0,92,0.00,,,0.00,meteohub,2013-12-20 05:54:00,
2013-12-19 22:56:00,17.1,15.1,29.53,East,82,0.0,2.0,92,0.00,,,0.00,meteohub,2013-12-20 05:56:00,
2013-12-19 22:57:00,17.1,15.1,29.53,East,82,0.0,2.0,92,0.00,,,0.00,meteohub,2013-12-20 05:57:00,
2013-12-19 22:58:00,17.1,15.1,29.53,NNW,342,1.0,2.0,92,0.00,,,0.00,meteohub,2013-12-20 05:58:00,
2013-12-19 23:02:00,16.9,14.7,29.53,ENE,64,1.0,2.0,91,0.00,,,0.00,meteohub,2013-12-20 06:02:00,
2013-12-19 23:04:00,16.9,14.7,29.53,NNE,27,0.0,2.0,91,0.00,,,0.00,meteohub,2013-12-20 06:04:00,
2013-12-19 23:06:00,16.7,14.5,29.54,West,260,0.0,1.0,91,0.00,,,0.00,meteohub,2013-12-20 06:06:00,
2013-12-19 23:08:00,16.5,14.4,29.54,ENE,69,1.0,1.0,91,0.00,,,0.00,meteohub,2013-12-20 06:08:00,
2013-12-19 23:12:00,16.2,13.8,29.54,East,79,0.0,1.0,90,0.00,,,0.00,meteohub,2013-12-20 06:12:00,
2013-12-19 23:14:00,16.0,13.6,29.54,East,80,0.0,1.0,90,0.00,,,0.00,meteohub,2013-12-20 06:14:00,
2013-12-19 23:16:00,15.6,13.3,29.54,East,85,0.0,1.0,90,0.00,,,0.00,meteohub,2013-12-20 06:16:00,
2013-12-19 23:17:00,15.6,13.3,29.54,East,85,0.0,1.0,90,0.00,,,0.00,meteohub,2013-12-20 06:17:00,
2013-12-19 23:18:00,15.4,13.1,29.54,East,85,0.0,1.0,90,0.00,,,0.00,meteohub,2013-12-20 06:18:00,
2013-12-19 23:22:00,15.3,12.9,29.54,ENE,78,0.0,1.0,90,0.00,,,0.00,meteohub,2013-12-20 06:22:00,
2013-12-19 23:24:00,15.1,12.7,29.54,East,79,1.0,1.0,90,0.00,,,0.00,meteohub,2013-12-20 06:24:00,
2013-12-19 23:26:00,15.1,12.7,29.54,East,87,0.0,1.0,90,0.00,,,0.00,meteohub,2013-12-20 06:26:00,
2013-12-19 23:27:00,14.9,12.6,29.54,East,87,0.0,1.0,90,0.00,,,0.00,meteohub,2013-12-20 06:27:00,
2013-12-19 23:30:00,14.7,12.4,29.54,East,81,0.0,1.0,90,0.00,,,0.00,meteohub,2013-12-20 06:30:00,
2013-12-19 23:32:00,14.7,12.4,29.54,East,89,1.0,1.0,90,0.00,,,0.00,meteohub,2013-12-20 06:32:00,
2013-12-19 23:36:00,14.5,12.2,29.54,East,100,0.0,1.0,90,0.00,,,0.00,meteohub,2013-12-20 06:36:00,
2013-12-19 23:37:00,14.5,12.2,29.54,East,100,0.0,1.0,90,0.00,,,0.00,meteohub,2013-12-20 06:37:00,
2013-12-19 23:38:00,14.4,12.0,29.54,ENE,57,0.0,1.0,90,0.00,,,0.00,meteohub,2013-12-20 06:38:00,
2013-12-19 23:42:00,14.2,11.8,29.54,East,84,0.0,1.0,90,0.00,,,0.00,meteohub,2013-12-20 06:42:00,
2013-12-19 23:45:00,13.8,11.5,29.54,East,84,0.0,1.0,90,0.00,,,0.00,meteohub,2013-12-20 06:45:00,
2013-12-19 23:47:00,13.8,11.5,29.53,West,280,0.0,2.0,90,0.00,,,0.00,meteohub,2013-12-20 06:47:00,
2013-12-19 23:52:00,13.6,11.5,29.54,WNW,286,0.0,2.0,91,0.00,,,0.00,meteohub,2013-12-20 06:52:00,
2013-12-19 23:53:00,13.6,11.5,29.54,West,273,1.0,2.0,91,0.00,,,0.00,meteohub,2013-12-20 06:53:00,
2013-12-19 23:55:00,13.6,11.5,29.54,SW,233,0.0,2.0,91,0.00,,,0.00,meteohub,2013-12-20 06:55:00,
2013-12-19 23:59:00,13.6,11.5,29.54,West,281,0.0,2.0,91,0.00,,,0.00,meteohub,2013-12-20 06:59:00,